Regional Weather Roundup
Issued by NWS

Home | Current Version | Previous Version | Text Only | Print | Product List | Glossary Off
Versions: 1 2 3 4 5 6 7 8 9 10 11 12 13 14 15 16 17 18 19 20 21 22 23 24 25 26 27 28 29 30 31 32 33 34 35 36 37 38 39 40 41 42 43 44 45 46 47 48 49 50

220
ASUS43 KBIS 172110
RWRND

NORTH DAKOTA REGIONAL WEATHER ROUNDUP
NATIONAL WEATHER SERVICE BISMARCK ND
400 PM CDT TUE OCT 17 2017

NOTE: "FAIR" INDICATES FEW OR NO CLOUDS BELOW 12,000 FEET WITH NO
SIGNIFICANT WEATHER AND/OR OBSTRUCTIONS TO VISIBILITY.


NDZ001>003-009>011-017-172200-
NORTHWEST NORTH DAKOTA

CITY           SKY/WX    TMP DP  RH WIND       PRES   REMARKS
WILLISTON      SUNNY     77  27  15 SW18G28   29.65F
MINOT          SUNNY     76  30  18 SW21G29   29.67F
MINOT AFB      SUNNY     74  31  20 W18G25    29.64F
$$

NDZ018>021-031>035-040>046-172200-
SOUTHWEST NORTH DAKOTA

CITY           SKY/WX    TMP DP  RH WIND       PRES   REMARKS
BISMARCK       SUNNY     80  28  15 SW15      29.77F
DICKINSON      CLOUDY    76  24  14 W20G26    29.76F
GARRISON         N/A     75  32  20 W22G28    29.72F
HETTINGER ARPT SUNNY     77  23  13 W18       29.84F
$$

NDZ004>008-012>016-024-026-027-054-172200-
NORTHEAST NORTH DAKOTA

CITY           SKY/WX    TMP DP  RH WIND       PRES   REMARKS
GRAND FORKS    MOSUNNY   80  32  17 SW17G28   29.70F
GRND FRKS AFB  SUNNY     79  29  16 SW21G28   29.70F
DEVILS LAKE    SUNNY     72  34  24 SW17      29.70F
$$

NDZ022-023-025-028>030-036>039-047>053-172200-
SOUTHEAST NORTH DAKOTA

CITY           SKY/WX    TMP DP  RH WIND       PRES   REMARKS
FARGO          SUNNY     76  39  26 S16G24    29.78F
JAMESTOWN      SUNNY     76  27  16 W15G23    29.76F
$$





USA.gov is the U.S. government's official web portal to all federal, state and local government web resources and services.